User: anonymous   Login
Location: Unspecified
(0.0000°N, 0.0000°E)
Time: 07:47:05
(UTC+00:00)
Language:

STARLINK-35482 - Orbit

View from above orbital plane
View from above orbital plane
View from above satellite
View from above satellite

Ground track
Ground track

The orbit is defined by the following mean orbital elements,

1 66346U          26145.36853608 +.00000000 +00000-0 +55215-3 0 00006
2 66346  43.0020 139.2830 0001483 283.1882  76.8804 15.27588668    09
Epoch (UTC): 25 May 2026 08:50:41
Eccentricity: 0.0001483
inclination: 43.0020°
perigee height: 482 km
apogee height: 484 km
right ascension of ascending node: 139.2830°
argument of perigee: 283.1882°
revolutions per day: 15.27588668
mean anomaly at epoch: 76.8804°

The dashed part of the orbit path shows where the satellite is in the earth's shadow,  

DLR